Wind_Speed
34 35 34 34 35 36 36 36 36 37 37 37 38 38 39 39 39 40 40 40 40 40 40 41 41 41 41 42 43 44 44 44 44 44 45 45 46 48 48 50 50 50 51
36 36 36 35 35 36 36 36 37 37 38 38 38 39 40 40 40 40 39 39 39 38 38 39 40 40 41 41 42 43 43 44 44 44 45 45 46 46 47 49 50 50 50
37 37 37 37 37 37 37 37 37 37 37 38 38 38 39 40 40 41 40 39 39 38 38 38 39 40 41 41 42 43 43 44 44 45 45 46 47 47 47 48 49 49 50
38 37 37 37 37 38 38 38 38 37 38 38 39 39 39 39 40 40 41 39 38 38 38 38 39 40 40 41 42 43 44 45 45 45 45 46 46 46 47 48 48 49 49
38 38 38 38 38 38 38 38 38 38 38 39 39 39 39 40 40 40 40 40 39 38 38 38 39 39 40 41 42 42 43 44 44 44 44 45 45 46 47 48 49 48 48
39 39 39 39 38 38 38 38 39 39 38 38 38 38 38 38 38 39 38 38 38 38 38 38 39 39 39 40 41 42 42 42 42 43 44 44 44 45 47 48 49 49 49
39 39 39 39 39 38 38 38 38 38 38 38 38 38 38 37 37 37 37 37 37 37 38 39 39 38 38 39 40 40 40 41 41 43 44 44 44 45 47 47 48 48 48
39 39 39 38 38 38 38 37 37 37 37 37 37 37 36 36 36 36 35 36 36 36 37 37 38 38 39 39 39 39 40 40 41 41 42 43 44 44 45 46 47 47 48
38 38 38 38 38 37 37 36 36 36 36 36 36 35 35 35 35 35 34 35 35 35 35 35 35 36 37 38 38 38 38 38 39 40 41 42 42 43 44 46 47 47 47
38 37 37 37 37 37 36 35 35 35 35 35 34 34 34 34 34 34 34 34 34 35 35 35 35 36 36 36 37 37 38 38 39 40 40 41 42 43 44 45 46 46 46
37 37 37 36 36 36 36 35 35 34 34 34 33 33 33 33 34 34 34 34 34 35 35 35 36 37 37 37 37 38 38 39 39 40 41 42 42 43 43 43 45 45 45
37 37 37 36 36 35 35 35 34 34 34 33 33 33 33 33 33 33 34 34 35 35 35 35 35 36 37 37 37 38 38 39 39 40 40 40 41 42 43 44 43 43 43
36 36 36 36 35 34 34 33 33 32 33 33 33 33 33 32 32 33 33 33 34 35 34 34 34 35 36 37 38 38 39 39 39 39 39 40 40 41 42 41 40 41 41
34 34 34 34 34 33 33 33 33 33 33 32 32 32 32 32 32 32 32 32 33 33 33 33 34 34 35 36 37 37 37 38 38 38 39 39 40 40 39 39 40 40 40
31 31 32 32 31 32 31 32 32 32 32 31 31 31 31 31 32 32 32 32 31 31 32 32 32 33 33 34 35 36 36 37 38 38 39 39 39 38 38 38 38 38 39
30 29 29 29 29 29 29 29 29 29 29 29 29 29 29 30 31 31 32 32 32 32 32 31 31 32 33 33 34 36 36 37 37 38 38 38 37 37 37 38 38 38 38
31 30 29 28 28 27 27 26 26 26 26 26 27 28 28 28 28 29 30 30 30 30 30 30 30 31 32 33 34 34 35 36 36 36 36 35 36 36 36 37 37 38 38
31 30 28 28 27 27 26 25 24 24 25 25 26 27 27 28 28 28 28 29 29 29 30 30 30 31 31 32 33 33 34 34 35 35 35 35 36 36 36 36 36 36 36
28 28 28 27 27 27 26 25 25 24 24 24 25 25 26 27 27 28 28 28 29 29 29 30 30 30 31 31 32 32 33 33 33 33 34 35 35 35 35 35 35 35 35
26 27 27 26 26 26 25 25 24 24 24 24 25 25 26 26 27 28 28 28 28 28 29 29 30 30 30 30 31 31 32 32 32 32 33 34 34 35 35 35 35 35 35
26 26 26 25 24 24 25 25 25 25 25 25 25 26 26 27 27 28 28 28 28 28 29 29 29 29 30 30 31 31 31 31 32 32 33 33 34 34 34 34 35 35 34
26 27 26 26 26 26 26 26 26 26 26 26 27 27 27 28 28 28 28 28 28 29 29 29 30 30 30 31 32 32 32 32 32 33 34 34 34 34 34 34 35 35 35
25 26 27 26 26 26 26 26 26 26 26 26 27 27 27 28 28 29 29 29 30 30 30 30 30 30 31 31 32 32 32 32 33 33 34 33 34 34 34 34 34 34 35
24 26 26 27 26 26 26 26 27 27 27 27 28 28 28 28 28 29 29 29 29 29 29 29 30 30 31 31 31 31 32 32 32 32 32 32 33 33 33 34 34 34 34
24 25 25 26 26 26 26 27 27 27 27 27 28 28 28 28 28 28 28 28 28 28 29 29 30 30 31 31 31 31 31 31 31 31 31 32 32 32 32 32 32 32 32
24 24 25 25 26 26 27 27 27 27 27 27 27 27 28 28 28 28 28 28 28 29 29 30 30 31 31 31 30 30 30 30 30 30 30 31 30 30 30 30 29 29 29
Wind_Direction
256 256 257 258 258 258 257 256 256 257 258 258 259 260 261 261 261 261 261 262 262 262 262 260 259 259 258 258 256 256 257 257 256 255 256 256 257 257 258 259 258 257 257
257 257 257 259 259 260 260 259 257 257 258 258 260 261 261 260 260 260 262 262 262 262 261 260 259 259 259 258 257 256 257 258 258 258 257 258 258 258 259 260 259 259 259
258 258 258 259 259 260 261 261 260 260 260 260 261 262 262 261 260 261 261 262 262 261 261 260 258 259 258 259 259 258 258 259 259 259 258 258 258 258 259 260 261 261 261
258 258 259 259 260 260 261 261 261 261 261 262 262 262 262 262 262 262 261 262 261 260 260 260 260 259 259 260 260 260 259 259 260 260 259 259 258 258 260 261 262 262 262
259 259 259 259 260 260 261 262 262 262 262 263 263 263 263 264 264 263 262 261 261 261 261 261 260 260 260 261 260 260 260 260 260 260 260 260 260 260 261 262 263 262 263
258 259 259 259 259 259 261 262 262 262 262 262 263 263 263 263 262 262 261 262 262 263 262 262 261 262 261 262 261 261 261 260 260 261 260 261 262 263 263 263 264 263 264
257 258 259 259 259 260 261 262 261 262 261 261 261 262 261 261 261 260 261 261 262 263 263 262 262 263 262 264 263 262 261 261 261 261 261 263 263 264 265 265 265 265 265
256 257 259 259 260 261 261 261 261 261 261 261 261 260 260 260 260 260 260 261 262 263 263 262 262 262 263 264 264 262 262 262 262 262 263 264 264 265 265 266 266 267 267
256 257 258 259 260 261 261 260 261 261 261 261 260 260 260 259 260 260 260 261 262 263 263 262 262 262 263 263 263 263 264 264 264 264 265 265 264 265 266 267 268 268 269
257 257 259 259 259 259 260 261 261 261 261 260 260 261 260 260 260 260 261 261 262 262 263 262 262 263 264 264 264 265 265 266 266 266 265 265 266 267 268 269 269 270 270
257 258 258 258 258 259 260 261 261 261 260 259 259 259 260 260 260 261 261 262 263 262 263 265 265 264 263 264 266 266 267 267 267 267 267 268 269 269 270 271 271 271 271
255 256 257 257 257 258 260 261 261 260 259 258 258 259 260 260 261 261 261 261 261 262 264 266 266 265 264 264 266 268 269 269 269 268 269 269 270 270 272 273 272 272 271
253 254 255 256 256 257 258 258 259 259 259 257 257 257 258 259 260 261 262 262 262 263 265 266 266 265 264 263 265 266 268 269 269 269 270 270 271 271 272 272 271 272 272
252 253 254 256 256 256 256 257 258 257 257 258 258 257 257 258 259 261 262 262 263 264 265 266 266 265 265 265 266 267 268 270 270 270 270 269 271 272 271 270 271 271 272
254 254 255 256 256 255 256 257 258 257 257 257 257 258 258 258 259 260 261 262 263 264 265 266 266 266 266 267 266 267 269 269 270 270 270 270 270 270 269 270 270 271 272
251 253 254 255 256 257 258 258 257 256 255 255 256 258 258 258 259 260 261 261 262 263 264 266 267 267 268 267 267 268 269 270 270 270 270 269 268 269 269 270 270 271 273
249 250 252 254 255 255 256 256 256 255 255 255 256 258 258 259 260 260 260 261 262 263 264 266 267 269 270 270 270 270 270 271 271 270 269 268 268 269 270 270 271 272 274
248 248 250 251 252 252 253 254 254 253 253 255 257 258 258 258 259 260 261 262 263 263 265 266 268 269 271 271 271 271 271 272 271 270 269 270 270 271 272 272 273 273 274
246 246 247 249 250 250 250 251 252 253 253 255 258 260 260 260 260 261 262 262 263 264 265 266 267 269 271 272 272 273 273 273 272 271 271 272 272 272 272 271 273 274 275
245 244 245 247 248 249 250 250 251 252 254 256 257 260 261 262 262 262 262 263 263 264 265 267 269 270 271 273 274 275 275 274 273 273 273 274 273 273 272 272 273 275 276
242 242 242 244 246 248 250 251 251 252 255 256 258 260 261 262 263 262 263 264 264 265 267 269 270 271 272 274 276 277 276 275 274 274 274 275 275 274 273 273 275 275 276
241 242 243 245 248 249 251 251 252 254 256 256 257 260 261 262 263 263 265 266 267 268 269 271 272 273 274 275 277 277 276 275 275 275 276 276 276 274 273 273 274 274 275
243 243 244 247 248 250 251 252 253 255 256 257 258 260 261 262 263 264 266 267 268 269 270 271 273 274 275 276 277 276 276 276 276 277 277 276 276 275 274 274 274 275 276
245 245 247 248 249 250 251 252 253 256 258 258 259 261 262 264 265 266 267 267 268 270 270 272 273 274 276 277 276 276 276 276 276 277 277 277 277 276 275 275 275 275 275
248 247 248 249 250 251 251 252 254 255 257 258 260 262 263 264 266 267 267 267 269 269 270 272 274 276 277 277 276 276 276 276 276 277 278 278 279 278 277 276 276 276 276
250 249 249 249 250 252 253 253 254 256 257 259 261 263 264 265 265 266 267 268 269 271 272 274 276 277 278 277 276 276 276 276 277 278 279 279 279 278 277 277 276 276 276
Height
5636 5637 5638 5639 5640 5641 5642 5643 5644 5645 5646 5647 5648 5649 5650 5651 5652 5652 5653 5653 5653 5653 5653 5654 5655 5655 5656 5657 5658 5660 5662 5664 5666 5669 5669 5671 5672 5673 5674 5675 5677 5678 5680
5626 5627 5628 5629 5630 5631 5632 5633 5634 5635 5636 5637 5638 5639 5639 5640 5641 5641 5641 5641 5641 5642 5642 5643 5644 5645 5646 5647 5648 5649 5651 5652 5654 5656 5658 5659 5660 5661 5662 5663 5664 5666 5667
5616 5617 5618 5619 5620 5621 5622 5622 5623 5624 5625 5626 5627 5628 5628 5629 5629 5630 5630 5630 5631 5631 5632 5632 5633 5634 5635 5636 5637 5638 5640 5641 5642 5644 5646 5647 5648 5649 5650 5651 5652 5653 5654
5605 5607 5608 5609 5609 5610 5611 5612 5613 5613 5614 5615 5616 5616 5617 5617 5618 5618 5619 5619 5620 5620 5621 5622 5622 5623 5624 5625 5626 5627 5628 5629 5631 5632 5634 5635 5636 5637 5638 5639 5640 5641 5642
5594 5596 5597 5598 5598 5599 5600 5601 5602 5602 5603 5604 5604 5605 5605 5606 5606 5607 5608 5608 5609 5610 5610 5611 5612 5612 5613 5614 5615 5616 5617 5618 5619 5620 5622 5623 5624 5625 5626 5627 5628 5628 5629
5583 5584 5585 5586 5587 5588 5589 5590 5590 5591 5591 5592 5593 5594 5594 5595 5595 5596 5596 5597 5598 5599 5600 5600 5601 5601 5602 5603 5604 5605 5605 5607 5608 5609 5611 5612 5612 5613 5613 5614 5615 5616 5617
5572 5573 5574 5575 5576 5576 5577 5578 5579 5580 5580 5581 5582 5582 5583 5584 5584 5585 5586 5587 5587 5588 5589 5589 5590 5591 5591 5592 5593 5594 5594 5595 5597 5598 5599 5600 5601 5602 5602 5602 5602 5602 5604
5560 5561 5562 5563 5564 5565 5566 5567 5567 5568 5569 5570 5570 5571 5572 5573 5573 5574 5575 5576 5577 5578 5578 5579 5580 5580 5581 5582 5582 5583 5584 5585 5585 5586 5588 5588 5589 5589 5589 5589 5589 5590 5590
5549 5550 5551 5552 5553 5554 5555 5556 5556 5557 5558 5559 5559 5560 5561 5562 5563 5564 5565 5566 5567 5567 5568 5569 5569 5570 5570 5571 5572 5573 5574 5574 5574 5575 5576 5576 5576 5576 5576 5577 5577 5577 5578
5538 5539 5540 5541 5542 5543 5544 5545 5545 5546 5547 5548 5549 5550 5551 5552 5553 5554 5555 5556 5557 5557 5558 5558 5559 5559 5560 5560 5561 5562 5563 5563 5563 5564 5564 5565 5565 5565 5564 5564 5564 5564 5564
5527 5528 5530 5531 5532 5532 5533 5534 5535 5536 5537 5538 5539 5540 5541 5542 5543 5544 5545 5546 5546 5547 5547 5548 5548 5548 5549 5550 5550 5551 5552 5552 5552 5553 5553 5553 5553 5553 5553 5552 5552 5551 5551
5516 5517 5519 5520 5521 5522 5523 5524 5524 5526 5527 5528 5529 5530 5531 5532 5533 5533 5534 5535 5536 5536 5537 5537 5537 5538 5538 5539 5540 5540 5541 5541 5541 5542 5542 5542 5542 5542 5541 5540 5539 5539 5538
5505 5506 5508 5509 5510 5511 5513 5514 5515 5516 5517 5518 5519 5520 5521 5522 5523 5524 5524 5525 5525 5526 5526 5527 5527 5527 5528 5529 5529 5530 5530 5530 5531 5531 5531 5531 5530 5530 5529 5528 5528 5527 5526
5494 5496 5497 5498 5500 5501 5503 5504 5505 5506 5507 5508 5509 5510 5511 5513 5514 5514 5515 5515 5516 5516 5516 5517 5517 5517 5518 5518 5519 5519 5519 5520 5520 5520 5520 5520 5519 5518 5517 5517 5516 5516 5515
5484 5485 5487 5488 5490 5491 5493 5494 5495 5496 5497 5498 5499 5501 5502 5503 5504 5505 5505 5506 5507 5507 5507 5507 5507 5508 5508 5508 5508 5508 5508 5508 5508 5508 5508 5508 5507 5507 5506 5506 5505 5505 5504
5474 5476 5478 5479 5481 5482 5483 5484 5485 5487 5488 5489 5490 5491 5492 5493 5494 5495 5496 5496 5497 5497 5498 5498 5498 5498 5498 5498 5498 5498 5498 5498 5497 5497 5497 5496 5496 5496 5495 5495 5494 5494 5493
5465 5467 5469 5471 5472 5473 5474 5475 5477 5478 5479 5480 5481 5482 5483 5484 5485 5486 5486 5487 5487 5488 5489 5489 5489 5489 5488 5488 5488 5488 5488 5487 5487 5486 5486 5485 5485 5485 5484 5484 5483 5483 5482
5456 5458 5460 5462 5464 5465 5466 5467 5468 5470 5471 5472 5473 5474 5475 5475 5476 5477 5478 5478 5479 5479 5479 5479 5480 5479 5479 5479 5478 5478 5477 5477 5476 5475 5475 5475 5474 5474 5474 5473 5472 5472 5471
5448 5450 5452 5454 5455 5457 5458 5460 5461 5462 5463 5464 5465 5465 5466 5467 5467 5468 5469 5470 5470 5470 5470 5470 5470 5470 5470 5469 5468 5468 5467 5466 5466 5465 5465 5464 5464 5463 5463 5463 5462 5461 5461
5440 5442 5444 5445 5447 5449 5450 5452 5453 5454 5456 5457 5457 5458 5458 5459 5459 5460 5460 5461 5461 5461 5461 5461 5461 5461 5460 5460 5459 5458 5457 5456 5456 5455 5455 5454 5453 5453 5453 5452 5452 5451 5450
5432 5434 5436 5438 5439 5441 5443 5444 5445 5447 5448 5449 5450 5450 5451 5451 5452 5452 5452 5452 5452 5452 5452 5452 5452 5451 5451 5450 5449 5449 5448 5447 5446 5445 5445 5444 5443 5443 5442 5442 5441 5441 5440
5424 5426 5428 5430 5431 5433 5434 5436 5437 5438 5439 5440 5441 5442 5442 5443 5443 5444 5444 5444 5443 5443 5443 5443 5442 5442 5441 5441 5440 5439 5438 5437 5436 5435 5434 5434 5433 5432 5432 5431 5431 5430 5429
5416 5418 5420 5421 5423 5425 5426 5428 5429 5430 5431 5432 5433 5433 5434 5434 5434 5434 5435 5434 5434 5434 5433 5433 5433 5432 5431 5431 5430 5429 5428 5427 5426 5425 5424 5423 5423 5422 5421 5421 5420 5419 5419
5408 5410 5411 5413 5415 5416 5418 5419 5420 5421 5422 5423 5424 5425 5425 5425 5425 5425 5425 5425 5425 5424 5424 5424 5423 5423 5422 5421 5420 5419 5418 5417 5416 5415 5414 5413 5412 5411 5410 5410 5409 5408 5408
5400 5402 5403 5405 5406 5408 5409 5411 5412 5413 5414 5414 5415 5416 5416 5416 5416 5416 5416 5416 5415 5415 5415 5414 5414 5413 5412 5411 5410 5409 5408 5407 5406 5405 5404 5403 5402 5400 5400 5399 5398 5397 5397
5392 5394 5395 5396 5398 5399 5401 5402 5403 5404 5405 5406 5406 5407 5407 5407 5407 5407 5407 5406 5406 5406 5405 5405 5404 5403 5402 5401 5400 5399 5398 5397 5396 5395 5394 5393 5392 5391 5390 5389 5388 5388 5387